Weather History for Springfield, MO

Change the Weather History Date:

Thursday, January 27, 2011

  Actual Average Record
Temperature  
Mean Temperature 36 °F 33 °F  
Max Temperature 54 °F 44 °F 67 °F (1914)
Min Temperature 17 °F 22 °F -7 °F (1963)
Degree Days  
Heating Degree Days 29 32  
Month to date heating degree days 985 879  
Since 1 July heating degree days 2761 2689  
Cooling Degree Days 0 0  
Month to date cooling degree days 0 0  
Year to date cooling degree days 0 0  
Moisture  
Dew Point 22 °F    
Average Humidity 66    
Maximum Humidity 100    
Minimum Humidity 32    
Precipitation  
Precipitation 0.00 in 0.07 in 1.49 in (1968)
Month to date precipitation 0.26 2.16  
Year to date precipitation 0.26 2.16  
Snow  
Snow 0.00 in - - ()
Month to date snowfall 3.0  
Since 1 July snowfall 4.0  
Snow Depth 0.00 in    
Sea Level Pressure  
Sea Level Pressure 30.01 in    
Wind  
Wind Speed 8 mph (WSW)    
Max Wind Speed 22 mph    
Max Gust Speed 29 mph    
Visibility 6 miles    
Events      
T = Trace of Precipitation, MM = Missing Value Source: NWS Daily Summary

Daily Weather History Graph

Daily Weather History Graph

Search for Another Location

Airport:

Trip Planner

Search our weather history database for the weather conditions in past years. The results will help you decide how hot, cold, wet, or windy it might be!

Date:

Astronomy

Jan. 27, 2011 Rise Set
Actual Time 7:20 AM CST 5:32 PM CST
Civil Twilight 6:52 AM CST 6:00 PM CST
Nautical Twilight 6:21 AM CST 6:31 PM CST
Astronomical Twilight 5:50 AM CST 7:02 PM CST
Moon 1:49 AM CST (1/27) 11:53 AM CST (1/27)
Length of Visible Light 11h 07m
Length of Day
10h 12m
Last Quarter, 37% of the Moon is Illuminated
Jan 27
Last Quarter
Feb 2
New
Feb 11
First Quarter
Feb 18
Full
Feb 24
Last Quarter

Hourly Weather History & Observations

Time (CST) Temp. Windchill Dew Point Humidity Pressure Visibility Wind Dir Wind Speed Gust Speed Precip Events Conditions
12:52 AM 24.1 °F - 23.0 °F 96% 30.12 in 3.0 mi Calm Calm - N/A   Clear
1:20 AM 24.8 °F 20.5 °F 23.0 °F 93% 30.09 in 2.5 mi WNW 3.5 mph - N/A   Clear
1:27 AM 24.8 °F - 21.2 °F 86% 30.08 in 3.0 mi Calm Calm - N/A   Clear
1:44 AM 21.2 °F - 19.4 °F 93% 30.08 in 2.5 mi Calm Calm - N/A   Clear
1:52 AM 21.0 °F - 19.9 °F 96% 30.11 in 2.5 mi Calm Calm - N/A   Clear
2:29 AM 19.4 °F - 19.4 °F 100% 30.08 in 3.0 mi Calm Calm - N/A   Clear
2:45 AM 19.4 °F - 17.6 °F 93% 30.08 in 2.5 mi Calm Calm - N/A   Clear
2:52 AM 19.9 °F - 19.0 °F 96% 30.10 in 2.5 mi Calm Calm - N/A   Clear
3:52 AM 18.0 °F 11.1 °F 16.0 °F 92% 30.09 in 2.0 mi SW 4.6 mph - N/A   Clear
4:02 AM 17.6 °F 10.7 °F 15.8 °F 93% 30.05 in 2.5 mi SW 4.6 mph - N/A   Scattered Clouds
4:20 AM 17.6 °F 12.3 °F 15.8 °F 93% 30.05 in 1.8 mi SW 3.5 mph - N/A   Partly Cloudy
4:28 AM 17.6 °F 10.7 °F 15.8 °F 93% 30.05 in 2.5 mi SW 4.6 mph - N/A   Clear
4:50 AM 17.6 °F 10.7 °F 17.6 °F 100% 30.04 in 1.8 mi SW 4.6 mph - N/A   Clear
4:52 AM 17.1 °F 10.0 °F 17.1 °F 100% 30.08 in 1.8 mi SW 4.6 mph - N/A   Clear
5:09 AM 17.6 °F 10.7 °F 15.8 °F 93% 30.03 in 2.5 mi SSW 4.6 mph - N/A   Clear
5:52 AM 19.9 °F 12.1 °F 18.0 °F 92% 30.08 in 2.5 mi SSW 5.8 mph - N/A   Clear
6:52 AM 19.0 °F 12.3 °F 17.1 °F 92% 30.08 in 3.0 mi South 4.6 mph - N/A   Clear
7:15 AM 17.6 °F 9.3 °F 17.6 °F 100% 30.03 in 2.5 mi South 5.8 mph - N/A   Clear
7:52 AM 19.9 °F 12.1 °F 18.0 °F 92% 30.06 in 2.0 mi South 5.8 mph - N/A   Clear
8:42 AM 24.8 °F 15.3 °F 23.0 °F 93% 30.00 in 3.0 mi SSW 9.2 mph - N/A   Clear
8:52 AM 27.0 °F 17.3 °F 25.0 °F 92% 30.05 in 3.0 mi SW 10.4 mph - N/A   Clear
9:52 AM 32.0 °F 22.5 °F 27.0 °F 82% 30.04 in 7.0 mi SW 12.7 mph - N/A   Clear
10:52 AM 39.0 °F 31.4 °F 26.1 °F 60% 30.01 in 10.0 mi SW 12.7 mph - N/A   Clear
11:52 AM 44.1 °F 36.8 °F 24.1 °F 45% 29.96 in 10.0 mi SSW 16.1 mph - N/A   Mostly Cloudy
12:52 PM 48.9 °F - 24.1 °F 38% 29.91 in 10.0 mi SW 18.4 mph 25.3 mph N/A   Clear
1:52 PM 53.1 °F - 25.0 °F 34% 29.88 in 10.0 mi West 15.0 mph 26.5 mph N/A   Clear
2:52 PM 53.1 °F - 25.0 °F 34% 29.87 in 10.0 mi West 16.1 mph 25.3 mph N/A   Clear
3:52 PM 51.1 °F - 27.0 °F 39% 29.89 in 10.0 mi West 13.8 mph - N/A   Clear
4:52 PM 48.9 °F - 28.0 °F 44% 29.91 in 10.0 mi WNW 13.8 mph 18.4 mph N/A   Clear
5:52 PM 43.0 °F 40.3 °F 28.0 °F 56% 29.92 in 10.0 mi West 4.6 mph - N/A   Clear
6:52 PM 34.0 °F - 25.0 °F 70% 29.94 in 10.0 mi Calm Calm - N/A   Clear
7:52 PM 30.9 °F - 25.0 °F 79% 29.94 in 10.0 mi Calm Calm - N/A   Clear
8:52 PM 39.0 °F 35.7 °F 28.0 °F 65% 29.94 in 10.0 mi WNW 4.6 mph - N/A   Clear
9:52 PM 37.0 °F 33.3 °F 28.9 °F 73% 29.94 in 10.0 mi WNW 4.6 mph - N/A   Clear
10:52 PM 37.0 °F 31.6 °F 30.0 °F 76% 29.94 in 10.0 mi WNW 6.9 mph - N/A   Clear
11:52 PM 36.0 °F 30.3 °F 30.0 °F 79% 29.94 in 10.0 mi WNW 6.9 mph - N/A   Clear